timestamp,surface_pressure_avg,surface_temp_avg,battery_voltage,lat,long
2022-12-20 00:09:00+00:00,250.1631,4.1,12.25,47.84626,-54.09684
2022-12-20 00:19:00+00:00,246.7531,4.14,12.25,47.84626,-54.09684
2022-12-20 00:29:00+00:00,244.8881,4.18,12.25,47.84626,-54.09684
2022-12-20 00:39:00+00:00,236.0914,4.1,12.25,47.84626,-54.09684
2022-12-20 00:49:00+00:00,231.1214,4.18,12.25,47.84626,-54.09684
2022-12-20 00:59:00+00:00,231.2214,4.19,12.25,47.84626,-54.09684
2022-12-20 01:09:00+00:00,226.5881,4.2,12.25,47.84626,-54.09684
2022-12-20 01:19:01+00:00,219.4214,4.2,12.25,47.84626,-54.09684
2022-12-20 01:29:01+00:00,217.9331,4.1,12.25,47.84626,-54.09684
2022-12-20 01:39:01+00:00,218.4214,4.1,12.25,47.84626,-54.09684
2022-12-20 01:49:01+00:00,215.8381,4.1,12.25,47.84626,-54.09684
2022-12-20 01:59:01+00:00,213.5748,4.1,12.25,47.84626,-54.09684
2022-12-20 02:09:01+00:00,215.6281,4.1,12.25,47.84626,-54.09684
2022-12-20 02:19:00+00:00,216.4381,4.1,12.25,47.84626,-54.09684
2022-12-20 02:29:00+00:00,214.5348,4.1,12.25,47.84626,-54.09684
2022-12-20 02:39:00+00:00,215.6848,4.1,12.25,47.84626,-54.09684
2022-12-20 02:49:00+00:00,218.8148,4.13,12.25,47.84626,-54.09684
2022-12-20 02:59:00+00:00,217.2531,4.14,12.25,47.84626,-54.09684
2022-12-20 03:09:00+00:00,215.3315,4.17,12.25,47.84626,-54.09684
2022-12-20 03:19:00+00:00,219.0448,4.2,12.25,47.84626,-54.09684
2022-12-20 03:29:00+00:00,223.6181,4.18,12.25,47.84626,-54.09684
2022-12-20 03:39:00+00:00,226.3264,4.19,12.25,47.84626,-54.09684
2022-12-20 03:49:00+00:00,229.7881,4.2,12.25,47.84626,-54.09684
2022-12-20 03:59:00+00:00,235.5014,4.18,12.25,47.84626,-54.09684
2022-12-20 04:09:00+00:00,240.0547,4.17,12.25,47.84626,-54.09684
2022-12-20 04:19:00+00:00,244.3581,4.16,12.25,47.84626,-54.09684
2022-12-20 04:29:00+00:00,249.6681,4.17,12.25,47.84626,-54.09684
2022-12-20 04:39:00+00:00,256.7864,4.16,12.25,47.84626,-54.09684
2022-12-20 04:49:00+00:00,261.0614,4.14,12.25,47.84626,-54.09684
2022-12-20 04:59:00+00:00,263.0814,4.1,12.25,47.84626,-54.09684
2022-12-20 05:09:00+00:00,265.9214,4.1,12.25,47.84626,-54.09684
2022-12-20 05:19:00+00:00,273.1748,4.1,12.25,47.84626,-54.09684
2022-12-20 05:29:00+00:00,280.5981,4.1,12.25,47.84626,-54.09684
2022-12-20 05:39:00+00:00,284.3397,4.1,12.25,47.84626,-54.09684
2022-12-20 05:49:00+00:00,289.3347,4.18,12.25,47.84626,-54.09684
2022-12-20 05:59:00+00:00,299.3214,4.2,12.25,47.84626,-54.09684
2022-12-20 06:09:00+00:00,303.8846,4.2,12.25,47.84626,-54.09684
2022-12-20 06:19:00+00:00,304.723,4.2,12.25,47.84626,-54.09684
2022-12-20 06:29:00+00:00,312.8614,4.2,12.25,47.84626,-54.09684
2022-12-20 06:39:00+00:00,322.658,4.11,12.25,47.84626,-54.09684
2022-12-20 06:49:00+00:00,325.9547,4.18,12.25,47.84626,-54.09684
2022-12-20 06:59:00+00:00,328.8463,4.2,12.25,47.84626,-54.09684
2022-12-20 07:09:00+00:00,337.778,4.2,12.25,47.84626,-54.09684
2022-12-20 07:19:00+00:00,343.7546,4.2,12.25,47.84626,-54.09684
2022-12-20 07:29:00+00:00,345.3846,4.2,12.25,47.84626,-54.09684
2022-12-20 07:39:00+00:00,347.7697,4.2,12.25,47.84626,-54.09684
2022-12-20 07:49:00+00:00,351.9196,4.19,12.25,47.84626,-54.09684
2022-12-20 07:59:00+00:00,358.0946,4.13,12.25,47.84626,-54.09684
2022-12-20 08:09:00+00:00,359.1545,4.1,12.25,47.84626,-54.09684
2022-12-20 08:19:00+00:00,357.3546,4.09,12.25,47.84626,-54.09684
2022-12-20 08:29:00+00:00,357.5764,4.1,12.25,47.84626,-54.09684
2022-12-20 08:39:00+00:00,360.4796,4.1,12.25,47.84626,-54.09684
2022-12-20 08:49:00+00:00,359.9346,4.09,12.25,47.84626,-54.09684
2022-12-20 08:59:00+00:00,356.2696,4.08,12.25,47.84626,-54.09684
2022-12-20 09:09:00+00:00,358.5396,4.1,12.25,47.84626,-54.09684
2022-12-20 09:19:01+00:00,361.0347,4.17,12.25,47.84626,-54.09684
2022-12-20 09:29:01+00:00,357.9212,4.19,12.25,47.84626,-54.09684
2022-12-20 09:39:01+00:00,356.958,4.19,12.25,47.84626,-54.09684
2022-12-20 09:49:01+00:00,358.9647,4.19,12.25,47.84626,-54.09684
2022-12-20 09:59:01+00:00,355.0396,4.19,12.25,47.84626,-54.09684
2022-12-20 10:09:01+00:00,348.7897,4.18,12.25,47.84626,-54.09684
2022-12-20 10:19:00+00:00,347.3181,4.17,12.25,47.84626,-54.09684
2022-12-20 10:29:00+00:00,345.8063,4.18,12.25,47.84626,-54.09684
2022-12-20 10:39:00+00:00,337.9913,4.18,12.25,47.84626,-54.09684
2022-12-20 10:49:00+00:00,333.8513,4.18,12.25,47.84626,-54.09684
2022-12-20 10:59:00+00:00,331.0746,4.19,12.25,47.84626,-54.09684
2022-12-20 11:09:00+00:00,322.8679,4.19,12.25,47.84626,-54.09684
2022-12-20 11:19:00+00:00,316.803,4.19,12.25,47.84626,-54.09684
2022-12-20 11:29:00+00:00,316.098,4.19,12.25,47.84626,-54.09684
2022-12-20 11:39:00+00:00,308.168,4.18,12.25,47.84626,-54.09684
2022-12-20 11:49:00+00:00,299.908,4.09,12.25,47.84626,-54.09684
2022-12-20 11:59:00+00:00,294.6114,3.9,12.25,47.84626,-54.09684
2022-12-20 12:09:00+00:00,289.333,3.9,12.25,47.84626,-54.09684
2022-12-20 12:19:00+00:00,280.2047,3.9,12.25,47.84626,-54.09684
2022-12-20 12:29:00+00:00,272.3397,3.9,12.25,47.84626,-54.09684
2022-12-20 12:39:00+00:00,267.8631,3.92,12.25,47.84626,-54.09684
2022-12-20 12:49:00+00:00,261.5014,4.0,12.25,47.84626,-54.09684
2022-12-20 12:59:00+00:00,254.9581,4.0,12.25,47.84626,-54.09684
2022-12-20 13:09:00+00:00,248.1564,3.9,12.25,47.84626,-54.09684
2022-12-20 13:19:00+00:00,244.993,3.9,12.25,47.84626,-54.09684
2022-12-20 13:29:00+00:00,241.6531,3.82,12.25,47.84626,-54.09684
2022-12-20 13:39:00+00:00,237.2131,3.84,12.25,47.84626,-54.09684
2022-12-20 13:49:00+00:00,232.6615,3.89,12.25,47.84626,-54.09684
2022-12-20 13:59:00+00:00,228.8697,3.9,12.25,47.84626,-54.09684
2022-12-20 14:09:00+00:00,226.1181,3.9,12.25,47.84626,-54.09684
2022-12-20 14:19:00+00:00,223.3948,3.9,12.25,47.84626,-54.09684
2022-12-20 14:29:00+00:00,224.6598,3.93,12.25,47.84626,-54.09684
2022-12-20 14:39:00+00:00,224.8148,4.0,12.25,47.84626,-54.09684
2022-12-20 14:49:00+00:00,222.1531,3.9,12.25,47.84626,-54.09684
2022-12-20 14:59:00+00:00,219.1781,3.8,12.25,47.84626,-54.09684
2022-12-20 15:09:00+00:00,219.1881,3.8,12.25,47.84626,-54.09684
2022-12-20 15:19:00+00:00,220.4248,3.8,12.25,47.84626,-54.09684
2022-12-20 15:29:00+00:00,219.4931,4.0,12.25,47.84626,-54.09684
2022-12-20 15:39:00+00:00,218.5581,4.1,12.25,47.84626,-54.09684
2022-12-20 15:49:00+00:00,222.3331,4.1,12.25,47.84626,-54.09684
2022-12-20 15:59:00+00:00,222.0631,4.09,12.25,47.84626,-54.09684
2022-12-20 16:09:00+00:00,220.3398,4.0,12.25,47.84626,-54.09684
2022-12-20 16:19:01+00:00,223.7431,4.04,12.25,47.84626,-54.09684
2022-12-20 16:29:01+00:00,228.8614,4.03,12.25,47.84626,-54.09684
2022-12-20 16:39:01+00:00,227.8831,4.01,12.25,47.84626,-54.09684
2022-12-20 16:49:01+00:00,230.7697,4.0,12.25,47.84626,-54.09684
2022-12-20 16:59:01+00:00,236.9348,3.9,12.25,47.84626,-54.09684
2022-12-20 17:09:01+00:00,237.7414,3.7,12.25,47.84626,-54.09684
2022-12-20 17:19:00+00:00,237.3898,3.7,12.41,47.84626,-54.09684
2022-12-20 17:29:00+00:00,241.8248,3.8,12.41,47.84626,-54.09684
2022-12-20 17:39:00+00:00,246.6648,3.94,12.41,47.84626,-54.09684
2022-12-20 17:49:00+00:00,251.3582,4.0,12.41,47.84626,-54.09684
2022-12-20 17:59:00+00:00,256.0997,4.0,12.41,47.84626,-54.09684
2022-12-20 18:09:00+00:00,259.7864,4.0,12.41,47.84626,-54.09684
2022-12-20 18:19:00+00:00,263.3114,4.0,12.41,47.84626,-54.09684
2022-12-20 18:29:00+00:00,269.3514,3.97,12.41,47.84626,-54.09684
2022-12-20 18:39:00+00:00,274.5848,3.91,12.41,47.84626,-54.09684
2022-12-20 18:49:00+00:00,277.3963,4.07,12.41,47.84626,-54.09684
2022-12-20 18:59:00+00:00,282.3614,4.16,12.41,47.84626,-54.09684
2022-12-20 19:09:00+00:00,289.5347,4.16,12.41,47.84626,-54.09684
2022-12-20 19:19:00+00:00,296.0746,4.2,12.25,47.84626,-54.09684
2022-12-20 19:29:00+00:00,300.1664,4.2,12.25,47.84626,-54.09684
2022-12-20 19:39:00+00:00,306.588,4.2,12.25,47.84626,-54.09684
2022-12-20 19:49:00+00:00,314.883,4.2,12.25,47.84626,-54.09684
2022-12-20 19:59:00+00:00,319.8813,4.2,12.25,47.84626,-54.09684
2022-12-20 20:09:00+00:00,319.5213,4.2,12.25,47.84626,-54.09684
2022-12-20 20:19:00+00:00,322.4913,4.25,12.25,47.84626,-54.09684
2022-12-20 20:29:00+00:00,328.083,4.27,12.25,47.84626,-54.09684
2022-12-20 20:39:00+00:00,328.0646,4.22,12.25,47.84626,-54.09684
2022-12-20 20:49:00+00:00,326.9714,4.2,12.25,47.84626,-54.09684
2022-12-20 20:59:00+00:00,331.2513,4.18,12.25,47.84626,-54.09684
2022-12-20 21:09:00+00:00,333.8962,4.1,12.25,47.84626,-54.09684
2022-12-20 21:19:00+00:00,333.9262,4.12,12.25,47.84626,-54.09684
2022-12-20 21:29:00+00:00,334.3863,4.2,12.25,47.84626,-54.09684
2022-12-20 21:39:00+00:00,339.2047,4.1,12.25,47.84626,-54.09684
2022-12-20 21:49:00+00:00,340.1563,4.1,12.25,47.84626,-54.09684
2022-12-20 21:59:00+00:00,338.6096,4.1,12.25,47.84626,-54.09684
2022-12-20 22:09:00+00:00,338.8363,4.1,12.25,47.84626,-54.09684
2022-12-20 22:19:00+00:00,339.028,4.09,12.25,47.84626,-54.09684
2022-12-20 22:29:00+00:00,337.6797,4.0,12.25,47.84626,-54.09684
2022-12-20 22:39:00+00:00,336.173,4.0,12.25,47.84626,-54.09684
2022-12-20 22:49:00+00:00,335.798,4.0,12.25,47.84626,-54.09684
2022-12-20 22:59:00+00:00,333.1913,4.0,12.25,47.84626,-54.09684
2022-12-20 23:09:00+00:00,327.8230000000001,4.1,12.25,47.84626,-54.09684
2022-12-20 23:19:00+00:00,323.3029,4.14,12.17,47.84626,-54.09684
2022-12-20 23:29:00+00:00,318.283,4.1,12.17,47.84626,-54.09684
2022-12-20 23:39:00+00:00,313.193,4.1,12.17,47.84626,-54.09684
2022-12-20 23:49:00+00:00,306.498,4.1,12.17,47.84626,-54.09684
2022-12-20 23:59:00+00:00,296.953,4.0,12.17,47.84626,-54.09684
